Regional Weather Roundup
Issued by NWS

Home | Current Version | Previous Version | Text Only | Print | Product List | Glossary On
Versions: 1 2 3 4 5 6 7 8 9 10 11 12 13 14 15 16 17 18 19 20 21 22 23 24 25 26 27 28 29 30 31 32 33 34 35 36 37 38 39 40 41 42 43 44 45 46 47 48 49 50
000
ASUS45 KBOU 282107
RWRCO

WEATHER ROUNDUP FOR COLORADO
NATIONAL WEATHER SERVICE DENVER/BOULDER CO
200 PM MST SAT FEB 28 2015

NOTE: "FAIR" INDICATES FEW OR NO CLOUDS BELOW 12000 FEET WITH NO
SIGNIFICANT WEATHER AND/OR OBSTRUCTIONS TO VISIBILITY.

COZ001>005-013-030-031-282200-
...NORTHWEST COLORADO...

CITY           SKY/WX    TMP DP  RH WIND       PRES   REMARKS
CRAIG          CLOUDY    38  11  32 CALM      29.72F
HAYDEN         PTSUNNY   34  12  40 SE8       29.71F WCI  27
MEEKER         CLOUDY    42  14  32 CALM      29.69F
MOUNT WERNER   NOT AVBL
STEAMBOAT SPGS PTSUNNY   31  11  44 CALM      29.72F
WALDEN         SUNNY     28  12  50 W3        29.72F
$$

COZ006>008-011-282200-
...WEST CENTRAL VALLEYS...

CITY           SKY/WX    TMP DP  RH WIND       PRES   REMARKS
GRAND JUNCTION PTSUNNY   41  20  43 SE9       29.73F
MONTROSE       LGT SNOW  30  27  88 S3        29.78S FOG
EAGLE          CLOUDY    34  18  51 CALM      29.75F
RIFLE          CLOUDY    39  14  36 VRB5      29.72F
DELTA          CLOUDY    38  29  68 SE3       29.78S
NUCLA          CLOUDY    41  30  65 S10G16    29.76F
$$

COZ017>023-064>068-282200-
...SOUTHWEST COLORADO...

CITY           SKY/WX    TMP DP  RH WIND       PRES   REMARKS
DURANGO        LGT SNOW  30  27  88 E6        29.80F FOG     WCI  24
CORTEZ         LGT SNOW  36  33  89 CALM      29.78S FOG
PAGOSA SPRINGS LGT SNOW  32  28  87 CALM      29.81F VSB 3/4
TELLURIDE      SNOW      27  25  91 SE5       29.76S VSB 1/2 WCI  22
WOLF CREEK PAS SNOW      16  14  93 SW23G36   29.79S VSB<1/4 WCI  -2
$$

COZ009-010-012-014-032>034-037-058>063-282200-
...CENTRAL COLORADO...

CITY           SKY/WX    TMP DP  RH WIND       PRES   REMARKS
ASPEN          CLOUDY    30  15  53 N8        29.70S WCI  22
BUENA VISTA    CLOUDY    28  17  61 NW6       29.76F WCI  22
COPPER MTN     PTSUNNY   23   9  54 SE17      29.69F WCI   9
BERTHOUD PASS  CLOUDY     9   3  78 SE14      29.71F WCI  -8
COTTONWOOD PAS LGT SNOW  27  19  74 SE5       29.74F VSB 1   WCI  21
GUNNISON       PTSUNNY   28  16  59 W3        29.79F
KREMMLING      CLOUDY    30  10  43 CALM      29.75F
LEADVILLE      CLOUDY    19  14  81 S21       29.70F WCI   3
SALIDA         CLOUDY    35  18  50 CALM      29.83F
SUNLIGHT       LGT SNOW  25  19  80 SW3         N/A
WILKERSON PASS CLOUDY    21  14  73 S3        29.77F
$$

COZ069>075-282200-
...SAN LUIS VALLEY/SANGRE DE CRISTO MOUNTAINS...

CITY           SKY/WX    TMP DP  RH WIND       PRES   REMARKS
ALAMOSA        CLOUDY    28  19  69 CALM      29.81F
LA VETA PASS   LGT SNOW  21  19  93 S3        29.78F
SAGUACHE       LGT SNOW  27  21  80 SE8       29.81F WCI  18
$$

COZ035-036-038>040-282200-
...NORTHERN COLORADO FRONT RANGE...

CITY           SKY/WX    TMP DP  RH WIND       PRES   REMARKS
DENVER INTL AP PTSUNNY   18  10  71 N8        29.93F WCI   8
DMNS CITY PARK   N/A     23  10  57 N5G10     29.93F WCI  17
AURORA         PTSUNNY   20  10  65 N7        29.92F WCI  11
FRONT RANGE AP NOT AVBL
ERIE MUNI ARPT PTSUNNY   23  12  62 N5        29.95F WCI  17
BOULDER MUN AP PTSUNNY   28  12  50 NW5       29.94S WCI  23
CENTENNIAL     PTSUNNY   22  11  62 N9        29.90F WCI  12
BROOMFIELD     PTSUNNY   21  12  68 N6        29.93  WCI  14
FORT COLLINS   PTSUNNY   27  16  63 N3        29.96F
LONGMONT       PTSUNNY   32  12  44 N6        29.97F WCI  26
$$

COZ041-046-047-076>085-087-088-282200-
...PIKES PEAK/PALMER DIVIDE AND SOUTHERN FOOTHILLS...

CITY           SKY/WX    TMP DP  RH WIND       PRES   REMARKS
COLO. SPRINGS  MOSUNNY   19  13  77 S9        29.89S WCI   8
A. F. ACADEMY  SUNNY     25  11  54 VRB3      29.85F
ELLICOTT       NOT AVBL
FALCON         SUNNY     26  14  62 S5        29.86S WCI  20
FORT CARSON    SUNNY     20  11  70 SE6       29.89S WCI  12
LIMON          SUNNY     18  10  71 N10       29.94R WCI   6
MONUMENT HILL  SUNNY     21  10  63 NW9       29.84F WCI  11
TRINIDAD       CLOUDY    22  14  71 E3        29.91S
$$

COZ042>045-048>051-090-091-282200-
...NORTHEAST COLORADO...

CITY           SKY/WX    TMP DP  RH WIND       PRES   REMARKS
GREELEY ARPT   PTSUNNY   28  12  50 NE7       29.95F WCI  21
AKRON          PTSUNNY   23  15  71 NE5       29.96F WCI  17
BURLINGTON     CLOUDY    18  11  74 SE7       30.03F WCI   9
WRAY           FLURRIES  25  13  60 CALM      30.05F
STERLING       MOSUNNY   28  18  64 NW6       30.00F WCI  22
HOLYOKE        NOT AVBL
FORT MORGAN    MOSUNNY   25  12  58 NE3       29.98F
$$

COZ086-089-092>099-282200-
...SOUTHEAST COLORADO...

CITY           SKY/WX    TMP DP  RH WIND       PRES   REMARKS
PUEBLO         PTSUNNY   19  11  70 SE6       29.97S WCI  11
LA JUNTA       PTSUNNY   23  14  68 NE5       30.01F WCI  17
LAMAR          CLOUDY    24  15  68 VRB3      30.02F
SPRINGFIELD      N/A     24  14  65 N3        29.97F
$$



USA.gov is the U.S. government's official web portal to all federal, state and local government web resources and services.